This is the latest recevied weather packets stored in our database for station/object WX0ABE-13. If no packets are shown the sender has not sent any weather packets the latest 10 day(s).
| Time | Temp. | Humidity | Pressure | Rain* | Wind** | Luminosity | Snow |
|---|---|---|---|---|---|---|---|
| 1787745662 | 17.78° C | 82% | 1024.1 hPa | 0 mm | - | 0 W/m² | - |
| 1787745356 | 17.78° C | 81% | 1023.8 hPa | 0 mm | - | 0 W/m² | - |
| 1787745055 | 17.78° C | 81% | 1023.7 hPa | 0 mm | - | 0 W/m² | - |
| 1787744752 | 18.33° C | 79% | 1023.5 hPa | 0 mm | - | 0 W/m² | - |
| 1787744448 | 18.33° C | 80% | 1023.3 hPa | 0 mm | - | 0 W/m² | - |
| 1787744143 | 18.33° C | 81% | 1023.2 hPa | 0 mm | - | 0 W/m² | - |
| 1787743839 | 18.33° C | 79% | 1023.2 hPa | 0 mm | - | 0 W/m² | - |
| 1787743538 | 18.33° C | 81% | 1023.5 hPa | 0 mm | - | 0 W/m² | - |
| 1787743234 | 17.78° C | 81% | 1023.8 hPa | 0 mm | - | 0 W/m² | - |
| 1787742930 | 17.22° C | 83% | 1024 hPa | 0 mm | - | 0 W/m² | - |
| 1787742626 | 17.22° C | 86% | 1023.8 hPa | 0 mm | - | 0 W/m² | - |
| 1787742321 | 17.78° C | 85% | 1024.2 hPa | 0 mm | - | 0 W/m² | - |
| 1787742019 | 17.22° C | 87% | 1024.5 hPa | 0 mm | - | 0 W/m² | - |
| 1787741712 | 17.22° C | 89% | 1024.6 hPa | 0 mm | - | 0 W/m² | - |
| 1787741408 | 17.22° C | 92% | 1024.8 hPa | 0 mm | - | 0 W/m² | - |
| 1787741109 | 16.67° C | 94% | 1024.8 hPa | 0 mm | - | 0 W/m² | - |
| 1787740801 | 16.67° C | 95% | 1024.9 hPa | 0 mm | - | 0 W/m² | - |
| 1787740500 | 16.67° C | 95% | 1025.1 hPa | 1.78 mm | - | 0 W/m² | - |
| 1787740195 | 16.67° C | 96% | 1025 hPa | 1.78 mm | - | 0 W/m² | - |
| 1787739891 | 16.67° C | 96% | 1025.4 hPa | 1.27 mm | - | 0 W/m² | - |
| 1787739588 | 16.67° C | 96% | 1025.5 hPa | 1.27 mm | - | 0 W/m² | - |
| 1787739287 | 16.67° C | 95% | 1025.9 hPa | 0 mm | - | 0 W/m² | - |
| 1787738983 | 16.67° C | 95% | 1026 hPa | 0 mm | - | 0 W/m² | - |
| 1787738679 | 16.67° C | 95% | 1026.1 hPa | 0 mm | - | 0 W/m² | - |
| 1787738378 | 16.67° C | 95% | 1026.4 hPa | 0 mm | - | 0 W/m² | - |
* Rain latest hour (hover to see other rain measurements)
** Current wind speed in m/s (hover to see current wind gust speed)